Regional Weather Roundup
Issued by NWS Charleston, WV

Home | Current Version | Previous Version | Graphics & Text | Print | Product List | Glossary On
Versions: 1 2 3 4 5 6 7 8 9 10 11 12 13 14 15 16 17 18 19 20 21 22 23 24 25 26 27
000
ASUS41 KRLX 130410
RWRRLX
West Virginia Regional Weather Roundup
National Weather Service Charleston WV
1100 PM EST TUE DEC 12 2017

Note: "fair" indicates few or no clouds below 12,000 feet with no
significant weather and/or obstructions to visibility.

WVZ003-130500-
Northern Panhandle of West Virginia

CITY           SKY/WX    TMP DP  RH WIND       PRES   REMARKS
WHEELING       CLEAR     15   2  56 W17       29.81F WCI  -1
$$

WVZ009-130500-
Northwest West Virginia

CITY           SKY/WX    TMP DP  RH WIND       PRES   REMARKS
PARKERSBURG    LGT SNOW  20  15  81 W13       29.93S WCI   7
$$

WVZ006-130500-
Western West Virginia

CITY           SKY/WX    TMP DP  RH WIND       PRES   REMARKS
HUNTINGTON     CLOUDY    23  14  68 NW7       29.97S
$$

WVZ015-130500-
West Central West Virginia

CITY           SKY/WX    TMP DP  RH WIND       PRES   REMARKS
CHARLESTON     MOCLDY    22  12  65 W10G17    29.94R
$$

WVZ022-031-130500-
North Central West Virginia

CITY           SKY/WX    TMP DP  RH WIND       PRES   REMARKS
CLARKSBURG     CLOUDY    20   4  50 W16G25    29.83S WCI   6
MORGANTOWN     PTCLDY    17   5  59 W8        29.82S WCI   7
$$

WVZ025-035-042-045-130500-
Southern West Virginia

CITY           SKY/WX    TMP DP  RH WIND       PRES   REMARKS
BECKLEY        LGT SNOW  16   8  71 NW17G26   29.79F WCI   0
LOGAN          FLURRIES  21  16  79 VRB6      29.91R
BLUEFIELD      FLURRIES  16   7  67 NW16G25   29.77S WCI   1
LEWISBURG      CLOUDY    17   8  65 W10G17    29.77S WCI   5
$$

WVZ047-130500-
Northern Mountains of West Virginia

CITY           SKY/WX    TMP DP  RH WIND       PRES   REMARKS
ELKINS         LGT SNOW  16   8  71 NW20G25   29.76R WCI  -1
$$

WVZ052-130500-
Eastern Panhandle of West Virginia

CITY           SKY/WX    TMP DP  RH WIND       PRES   REMARKS
MARTINSBURG    MOCLDY    21  -1  38 NW17G28   29.74R WCI   7
PETERSBURG     LGT SNOW  19  12  73 CALM      29.76F
$$




USA.gov is the U.S. government's official web portal to all federal, state and local government web resources and services.